📊 Raw Sensor Data

Showing records 50726 to 50750 of 85,138 total

ID Distance (ft) Battery V Battery A Int Temp (°F) Int Humid (%) Ext Temp (°F) Solar V RSSI SNR Time Stamp
34425 15.5 4.01 5 81 38 71 5.10 -75 9 03/08/2025 04:15 PM
34424 15.5 4.01 5 81 38 70 5.10 -75 7 03/08/2025 04:00 PM
34423 15.5 4.01 5 83 37 71 5.10 -76 8 03/08/2025 03:45 PM
34422 15.5 4.00 5 83 36 72 5.10 -75 8 03/08/2025 03:15 PM
34421 15.6 4.00 5 81 37 70 5.10 -76 8 03/08/2025 03:00 PM
34420 15.6 4.00 0 83 35 72 5.10 -76 7 03/08/2025 02:45 PM
34419 15.6 4.00 0 81 35 69 5.10 -76 8 03/08/2025 02:30 PM
34418 15.6 4.00 0 81 35 68 5.10 -76 7 03/08/2025 02:15 PM
34417 15.5 4.00 0 80 35 67 5.10 -76 8 03/08/2025 02:00 PM
34416 15.6 4.00 0 78 35 69 5.10 -76 8 03/08/2025 01:45 PM
34415 15.5 4.05 5 77 35 67 5.10 -76 7 03/08/2025 01:30 PM
34414 15.7 4.00 0 76 35 67 5.10 -76 8 03/08/2025 01:15 PM
34413 15.6 4.01 5 76 35 67 5.10 -76 8 03/08/2025 01:00 PM
34412 15.6 4.00 5 74 35 65 5.10 -76 7 03/08/2025 12:45 PM
34411 15.6 4.14 0 73 35 65 5.10 -75 7 03/08/2025 12:30 PM
34410 15.5 4.00 0 71 35 64 5.10 -75 8 03/08/2025 12:15 PM
34409 15.5 4.00 0 70 35 64 5.10 -76 8 03/08/2025 11:45 AM
34408 15.5 4.14 0 68 35 63 5.10 -76 8 03/08/2025 11:30 AM
34407 15.5 4.00 0 66 35 62 5.10 -75 8 03/08/2025 11:15 AM
34406 15.5 4.00 5 66 35 63 5.10 -76 7 03/08/2025 11:00 AM
34405 15.6 4.00 0 65 35 62 5.10 -75 7 03/08/2025 10:45 AM
34404 15.6 4.13 5 63 35 63 5.10 -77 7 03/08/2025 10:30 AM
34403 15.6 4.00 0 61 35 61 5.10 -77 7 03/08/2025 10:15 AM
34402 15.6 4.01 5 60 34 61 5.10 -76 8 03/08/2025 10:00 AM
34401 15.6 4.09 5 58 34 59 5.10 -76 7 03/08/2025 09:45 AM